Weather History for Bloomington, IN

Change the Weather History Date:

Wednesday, October 2, 2013

  Actual Average Record
Temperature  
Mean Temperature 70 °F 59 °F  
Max Temperature 75 °F 72 °F 84 °F (2002)
Min Temperature 64 °F 46 °F 30 °F (2003)
Degree Days  
Heating Degree Days 0 7  
Month to date heating degree days 0 14  
Since 1 July heating degree days 64 99  
Cooling Degree Days 5 1  
Month to date cooling degree days 8 2  
Year to date cooling degree days 984 915  
Growing Degree Days 18 (Base 50)    
Moisture  
Dew Point 67 °F    
Average Humidity 90    
Maximum Humidity 100    
Minimum Humidity 79    
Precipitation  
Precipitation T in 0.12 in 0.19 in (2012)
Month to date precipitation T 0.24  
Year to date precipitation 32.18 36.78  
Sea Level Pressure  
Sea Level Pressure 30.08 in    
Wind  
Wind Speed 3 mph (SSW)    
Max Wind Speed 10 mph    
Max Gust Speed 14 mph    
Visibility 6 miles    
Events      
T = Trace of Precipitation, MM = Missing Value Source: NWS Daily Summary

Daily Weather History Graph

Daily Weather History Graph

Search for Another Location

Airport:

Trip Planner

Search our weather history database for the weather conditions in past years. The results will help you decide how hot, cold, wet, or windy it might be!

Date:

Astronomy

Oct. 02, 2013 Rise Set
Actual Time 7:43 AM EDT 7:27 PM EDT
Civil Twilight 7:16 AM EDT 7:53 PM EDT
Nautical Twilight 6:45 AM EDT 8:24 PM EDT
Astronomical Twilight 6:14 AM EDT 8:55 PM EDT
Moon 5:16 AM EDT (10/2) 6:02 PM EDT (10/2)
Length of Visible Light 12h 36m
Length of Day
11h 43m
Waning Crescent, 6% of the Moon is Illuminated
Oct 2
Waning Crescent
Oct 4
New
Oct 11
First Quarter
Oct 18
Full
Oct 26
Last Quarter

Hourly Weather History & Observations

Time (EDT) Temp. Dew Point Humidity Pressure Visibility Wind Dir Wind Speed Gust Speed Precip Events Conditions
12:53 AM 66.0 °F 64.0 °F 93% 30.05 in 9.0 mi WSW 3.5 mph - N/A   Clear
1:53 AM 64.9 °F 63.0 °F 93% 30.05 in 6.0 mi SW 4.6 mph - N/A   Clear
2:29 AM 66.2 °F 64.4 °F 94% 30.07 in 6.0 mi SW 5.8 mph - N/A   Mostly Cloudy
2:53 AM 68.0 °F 66.0 °F 93% 30.06 in 7.0 mi SW 5.8 mph - N/A   Overcast
3:15 AM 68.0 °F 66.2 °F 94% 30.07 in 6.0 mi WSW 4.6 mph - N/A   Overcast
3:53 AM 68.0 °F 66.0 °F 93% 30.05 in 5.0 mi SW 4.6 mph - N/A   Overcast
4:23 AM 66.2 °F 66.2 °F 100% 30.07 in 5.0 mi WSW 3.5 mph - N/A   Mostly Cloudy
4:32 AM 66.2 °F 66.2 °F 100% 30.06 in 5.0 mi WSW 4.6 mph - N/A   Overcast
4:46 AM 66.2 °F 66.2 °F 100% 30.07 in 3.0 mi WSW 4.6 mph - N/A   Overcast
4:53 AM 68.0 °F 66.9 °F 96% 30.05 in 3.0 mi WSW 3.5 mph - N/A   Overcast
5:53 AM 68.0 °F 66.9 °F 96% 30.06 in 2.5 mi WSW 5.8 mph - N/A   Overcast
6:53 AM 66.9 °F 66.9 °F 100% 30.07 in 2.0 mi West 5.8 mph - N/A   Overcast
7:04 AM 66.2 °F 66.2 °F 100% 30.09 in 1.5 mi West 4.6 mph - N/A   Overcast
7:33 AM 66.2 °F 66.2 °F 100% 30.09 in 2.0 mi Calm Calm - N/A   Overcast
7:53 AM 68.0 °F 66.0 °F 93% 30.08 in 2.5 mi NW 3.5 mph - N/A   Overcast
8:12 AM 68.0 °F 66.2 °F 94% 30.10 in 1.2 mi West 3.5 mph - N/A   Overcast
8:53 AM 68.0 °F 66.9 °F 96% 30.10 in 1.2 mi Calm Calm - N/A   Overcast
9:11 AM 69.8 °F 66.2 °F 88% 30.11 in 2.5 mi Calm Calm - N/A   Overcast
9:19 AM 69.8 °F 66.2 °F 88% 30.11 in 3.0 mi Calm Calm - N/A   Overcast
9:27 AM 69.8 °F 66.2 °F 88% 30.12 in 2.0 mi Calm Calm - N/A   Overcast
9:48 AM 68.0 °F 68.0 °F 100% 30.12 in 0.8 mi Calm Calm - N/A   Overcast
9:53 AM 68.0 °F 68.0 °F 100% 30.11 in 0.8 mi Calm Calm - N/A   Overcast
10:04 AM 68.0 °F 66.2 °F 94% 30.12 in 1.0 mi Calm Calm - N/A   Overcast
10:23 AM 69.8 °F 68.0 °F 94% 30.12 in 3.0 mi Calm Calm - N/A   Overcast
10:43 AM 69.8 °F 66.2 °F 88% 30.12 in 4.0 mi Calm Calm - N/A   Overcast
10:53 AM 70.0 °F 66.9 °F 90% 30.11 in 4.0 mi SSW 3.5 mph - N/A   Overcast
11:53 AM 71.1 °F 66.9 °F 87% 30.10 in 7.0 mi Calm Calm - N/A   Overcast
12:53 PM 71.1 °F 66.9 °F 87% 30.09 in 9.0 mi ESE 3.5 mph - N/A   Overcast
1:48 PM 71.6 °F 66.2 °F 83% 30.10 in 10.0 mi ESE 4.6 mph - N/A   Overcast
1:53 PM 72.0 °F 66.9 °F 84% 30.09 in 10.0 mi SE 3.5 mph - N/A   Overcast
2:53 PM 73.0 °F 68.0 °F 84% 30.07 in 10.0 mi South 3.5 mph - N/A   Overcast
3:48 PM 73.4 °F 66.2 °F 78% 30.07 in 10.0 mi Calm Calm - N/A   Overcast
3:53 PM 73.9 °F 68.0 °F 82% 30.05 in 10.0 mi SSE 3.5 mph - N/A   Overcast
4:02 PM 73.4 °F 68.0 °F 83% 30.07 in 10.0 mi SSE 4.6 mph - N/A   Overcast
4:53 PM 73.9 °F 66.9 °F 79% 30.04 in 10.0 mi East 3.5 mph - N/A   Mostly Cloudy
5:16 PM 73.4 °F 66.2 °F 78% 30.05 in 10.0 mi ESE 3.5 mph - N/A   Mostly Cloudy
5:25 PM 73.4 °F 68.0 °F 83% 30.05 in 10.0 mi SE 4.6 mph - N/A   Mostly Cloudy
5:53 PM 73.9 °F 68.0 °F 82% 30.04 in 10.0 mi Calm Calm - N/A   Overcast
6:19 PM 73.4 °F 68.0 °F 83% 30.07 in 10.0 mi SE 3.5 mph - N/A   Scattered Clouds
6:53 PM 73.0 °F 68.0 °F 84% 30.05 in 9.0 mi SE 3.5 mph - N/A   Partly Cloudy
7:53 PM 68.0 °F 66.0 °F 93% 30.04 in 7.0 mi Calm Calm - N/A   Clear
8:53 PM 68.0 °F 66.0 °F 93% 30.05 in 4.0 mi SSE 3.5 mph - N/A   Clear
9:53 PM 69.1 °F 66.9 °F 93% 30.05 in 6.0 mi South 4.6 mph - N/A   Clear
10:26 PM 69.8 °F 68.0 °F 94% 30.07 in 7.0 mi SSE 4.6 mph - N/A   Mostly Cloudy
10:51 PM 69.8 °F 68.0 °F 94% 30.06 in 6.0 mi South 4.6 mph - N/A   Partly Cloudy
10:53 PM 70.0 °F 68.0 °F 93% 30.05 in 6.0 mi South 4.6 mph - N/A   Partly Cloudy
11:53 PM 69.1 °F 66.0 °F 90% 30.04 in 10.0 mi Calm Calm - 0.00 in   Partly Cloudy